[[{"header":{"parameterUnit":"m.s-1","parameterCategory":1,"la1":30.2991,"la2":30.254,"lo1":-89.0895,"lo2":-89.0444,"dy":0.0017,"dx":0.0017,"nx":28,"ny":28,"refTime":"2024-06-05T03:00:00:Z","depth":0,"parameterNumber":2,"parameterNumberName":"U-component_of_WINDS"},"data":[0,0,0,0,0,0,0,0,0,0,0,0,0,0,0,0,0,0,0,0,0,0,0,0,0,0,0,0,0,0,0,0,0,0,0,0,0,0,0,0,0,0,0,0,0,0,0,0,0,0,0,0,0,0,0,0,0,0,-0.1098,-0.11,0,-0.1253,-0.1254,-0.1256,-0.1369,-0.137,-0.1371,-0.1372,-0.1532,-0.1535,-0.1539,0,0,0,0,0,0,0,0,0,0,0,0,0,-0.0904,-0.0907,-0.1098,-0.11,-0.1102,-0.1252,-0.1254,-0.1257,-0.1369,-0.137,-0.1371,-0.1372,-0.1531,-0.1535,-0.1539,0,0,0,0,0,0,0,0,0,0,0,0,0,-0.1016,-0.0908,-0.1098,-0.1176,-0.1185,-0.1252,-0.1255,-0.1257,-0.1369,-0.137,-0.1372,-0.1373,-0.153,-0.1535,-0.154,-0.1542,0,0,-0.1555,-0.1557,0,0,0,0,0,0,0,0,-0.101,-0.1023,-0.1163,-0.1171,-0.1181,-0.1293,-0.1245,-0.1353,-0.1368,-0.1299,-0.1372,-0.1374,-0.1452,-0.1463,-0.1489,-0.155,-0.1556,-0.1556,-0.1559,-0.1561,-0.1562,0,0,0,0,0,0,0,-0.1002,-0.1017,-0.1159,-0.1165,-0.1175,-0.1205,-0.1222,-0.1266,-0.1365,-0.1305,-0.1314,-0.133,-0.1457,-0.1484,-0.1494,-0.1559,-0.1555,-0.156,-0.1563,-0.1565,-0.1632,-0.1631,0,0,0,0,0,0,-0.0981,-0.101,-0.1154,-0.1164,-0.1097,-0.1207,-0.1227,-0.1256,-0.1365,-0.1383,-0.1329,-0.1335,-0.1475,-0.1488,-0.15,-0.1512,-0.1561,-0.1566,-0.1568,-0.1633,-0.1632,-0.163,0,0,0,0,0,0,-0.0977,-0.0993,-0.1148,-0.109,-0.1111,-0.1209,-0.124,-0.1258,-0.1285,-0.1383,-0.1402,-0.1338,-0.1476,-0.1493,-0.1531,-0.1519,-0.1568,-0.1572,-0.1635,-0.1633,-0.1631,-0.1534,0,0,0,0,0,0,-0.0971,-0.0991,-0.0992,-0.1089,-0.1114,-0.1176,-0.124,-0.126,-0.1293,-0.1303,-0.1397,-0.1414,-0.1479,-0.1523,-0.1536,-0.1527,-0.1576,-0.1636,-0.1634,-0.1631,-0.1539,-0.1529,-0.1521,0,0,0,0,0,-0.0963,-0.0958,-0.0991,-0.1008,-0.1117,-0.1175,-0.1189,-0.1264,-0.1292,-0.1294,-0.1358,-0.1411,-0.1518,-0.1526,-0.1542,-0.1533,-0.1637,-0.1634,-0.1632,-0.1543,-0.1531,-0.1521,0,0,0,0,0,0,-0.0858,-0.0972,-0.101,-0.1036,-0.1095,-0.1194,-0.1199,-0.1248,-0.1301,-0.1307,-0.1398,-0.1418,-0.1448,-0.1495,-0.1502,-0.1543,-0.1584,-0.1584,-0.1511,-0.1501,-0.1492,-0.1481,-0.1581,0,0,0,0,0,-0.0838,-0.0874,-0.0972,-0.0986,-0.1013,-0.11,-0.1128,-0.1181,-0.1245,-0.1271,-0.1337,-0.1399,-0.1447,-0.1476,-0.1525,-0.1546,-0.1569,-0.1548,-0.1539,-0.1531,-0.1531,-0.1547,-0.154,-0.1621,-0.1621,-0.1621,0,0,-0.0796,-0.0863,-0.0881,-0.0966,-0.1018,-0.1055,-0.1121,-0.1156,-0.1185,-0.1277,-0.1318,-0.1368,-0.1443,-0.1473,-0.1489,-0.1513,-0.1513,-0.1527,-0.152,-0.1525,-0.1543,-0.1536,-0.1529,-0.1619,-0.1619,-0.162,0,0,-0.074,-0.0793,-0.0811,-0.0862,-0.0939,-0.0998,-0.1002,-0.1094,-0.1131,-0.1173,-0.1243,-0.1279,-0.1358,-0.141,-0.1446,-0.141,-0.1462,-0.1424,-0.1377,-0.1392,-0.1386,-0.1381,-0.137,-0.1365,-0.1423,-0.1423,-0.1422,0,-0.0679,-0.0736,-0.0814,-0.0847,-0.0883,-0.0967,-0.0987,-0.1032,-0.1122,-0.1146,-0.117,-0.1274,-0.133,-0.1374,-0.1365,-0.1391,-0.1401,-0.1414,-0.138,-0.1376,-0.1372,-0.1363,-0.1358,-0.1418,-0.1418,-0.1419,-0.1419,0,-0.0659,-0.0697,-0.0703,-0.0787,-0.0824,-0.0849,-0.0933,-0.0961,-0.101,-0.1066,-0.111,-0.118,-0.1246,-0.126,-0.1308,-0.1312,-0.1324,-0.1363,-0.1407,-0.1358,-0.1351,-0.1348,-0.141,-0.1412,-0.1414,-0.1415,0,0,-0.0541,-0.0668,-0.0669,-0.0709,-0.0801,-0.0833,-0.0863,-0.0927,-0.0951,-0.101,-0.1039,-0.1105,-0.1142,-0.1183,-0.1238,-0.1251,-0.1221,-0.1289,-0.1293,-0.1276,-0.1232,-0.1203,-0.1197,-0.1255,-0.1255,-0.1254,-0.1226,0,-0.05,-0.0558,-0.063,-0.0664,-0.0702,-0.0783,-0.081,-0.087,-0.0923,-0.0964,-0.1024,-0.107,-0.1115,-0.114,-0.1157,-0.1221,-0.1214,-0.1224,-0.1285,-0.1286,-0.1265,-0.1193,-0.1163,-0.1132,-0.1223,-0.1223,-0.1223,0,-0.0461,-0.0515,-0.0553,-0.0643,-0.0662,-0.0684,-0.075,-0.0787,-0.0858,-0.0896,-0.0942,-0.1001,-0.1039,-0.1077,-0.1131,-0.1137,-0.1166,-0.1201,-0.1202,-0.1212,-0.1252,-0.1203,-0.1124,-0.112,-0.1219,-0.1219,-0.1219,0,-0.0373,-0.0456,-0.049,-0.0522,-0.0627,-0.0641,-0.0686,-0.0758,-0.0792,-0.085,-0.0874,-0.0934,-0.0968,-0.1015,-0.1089,-0.1109,-0.1136,-0.118,-0.1171,-0.1169,-0.1174,-0.1173,-0.1101,-0.1189,-0.119,-0.119,-0.119,0,-0.0322,-0.0342,-0.0453,-0.0473,-0.0499,-0.0582,-0.0606,-0.0658,-0.0721,-0.0755,-0.0829,-0.0859,-0.0955,-0.0997,-0.1055,-0.1093,-0.1107,-0.114,-0.1156,-0.1135,-0.1131,-0.1156,-0.1161,-0.1189,-0.1189,-0.1189,-0.1189,0,-0.0229,-0.0303,-0.0346,-0.0442,-0.0467,-0.0482,-0.0565,-0.059,-0.0647,-0.0689,-0.0704,-0.0795,-0.0849,-0.0927,-0.1004,-0.1044,-0.1073,-0.1097,-0.1049,-0.1059,-0.1046,-0.1047,-0.0989,-0.0987,-0.1074,-0.1073,-0.1072,0,-0.0192,-0.0209,-0.0307,-0.0335,-0.0377,-0.042,-0.0456,-0.0538,-0.0573,-0.0655,-0.0669,-0.0728,-0.078,-0.0862,-0.0936,-0.0996,-0.1024,-0.1,-0.1034,-0.1012,-0.1026,-0.1025,-0.1028,-0.0992,-0.099,-0.0989,-0.0988,0,-0.0119,-0.0155,-0.0203,-0.0264,-0.0304,-0.0356,-0.0412,-0.0431,-0.0526,-0.0561,-0.0616,-0.0656,-0.0736,-0.0794,-0.0864,-0.0912,-0.0967,-0.0977,-0.0979,-0.0958,-0.093,-0.0947,-0.1029,-0.0978,-0.0979,-0.098,-0.0981,-0.0981,-0.0055,-0.0075,-0.0147,-0.0199,-0.0249,-0.03,-0.0328,-0.0389,-0.0436,-0.0507,-0.0553,-0.0606,-0.0678,-0.0778,-0.0823,-0.0867,-0.089,-0.0891,-0.0892,-0.0892,-0.0885,-0.0921,-0.088,-0.0881,-0.0881,-0.0881,-0.0882,0,0.0012,-0.0038,-0.0084,-0.016,-0.0201,-0.0247,-0.0312,-0.0343,-0.0389,-0.0451,-0.05,-0.0565,-0.0622,-0.0701,-0.0764,-0.0785,-0.0811,-0.0799,-0.0799,-0.081,-0.086,-0.0854,-0.0776,-0.0776,-0.0776,-0.0776,-0.0776,-0.0776,0.0043,0.0006,-0.0039,-0.0103,-0.0154,-0.0206,-0.0239,-0.0287,-0.0337,-0.0406,-0.0453,-0.0504,-0.0573,-0.0642,-0.0698,-0.072,-0.074,-0.072,-0.075,-0.0796,-0.0806,-0.0815,-0.0809,-0.0724,-0.0724,-0.0696,-0.0696,-0.0696]},{"header":{"parameterUnit":"m.s-1","parameterCategory":1,"la1":30.2991,"la2":30.254,"lo1":-89.0895,"lo2":-89.0444,"dy":0.0017,"dx":0.0017,"nx":28,"ny":28,"refTime":"2024-06-05T03:00:00:Z","depth":0,"parameterNumber":3,"parameterNumberName":"V-component_of_WINDS"},"data":[0,0,0,0,0,0,0,0,0,0,0,0,0,0,0,0,0,0,0,0,0,0,0,0,0,0,0,0,0,0,0,0,0,0,0,0,0,0,0,0,0,0,0,0,0,0,0,0,0,0,0,0,0,0,0,0,0,0,6.2692,6.2692,0,6.2734,6.2734,6.2735,6.2636,6.2633,6.263,6.2627,6.2669,6.2673,6.2677,0,0,0,0,0,0,0,0,0,0,0,0,0,6.2523,6.2526,6.2692,6.2692,6.2693,6.2734,6.2734,6.2735,6.2637,6.2633,6.2629,6.2626,6.2668,6.2673,6.2678,0,0,0,0,0,0,0,0,0,0,0,0,0,6.2584,6.2527,6.2692,6.2649,6.2645,6.2734,6.2734,6.2735,6.2638,6.2633,6.2628,6.2624,6.2667,6.2672,6.2678,6.281,0,0,6.2697,6.27,0,0,0,0,0,0,0,0,6.258,6.259,6.2655,6.2652,6.2648,6.2675,6.269,6.276,6.2639,6.2641,6.2627,6.2622,6.2675,6.268,6.2698,6.2812,6.2814,6.2698,6.2701,6.2704,6.2706,0,0,0,0,0,0,0,6.2576,6.2587,6.2708,6.2656,6.2652,6.2626,6.263,6.2703,6.2684,6.264,6.2633,6.2639,6.2672,6.2693,6.2699,6.2814,6.2697,6.2703,6.2707,6.2709,6.3034,6.3038,0,0,0,0,0,0,6.2578,6.2585,6.2707,6.271,6.2602,6.2633,6.2637,6.2671,6.2683,6.268,6.2643,6.2635,6.2685,6.2692,6.27,6.2851,6.2704,6.2709,6.2713,6.3029,6.3035,6.304,0,0,0,0,0,0,6.2574,6.259,6.2705,6.2645,6.2658,6.2641,6.268,6.2674,6.2695,6.2685,6.2681,6.2668,6.2681,6.2691,6.2782,6.2852,6.2712,6.2718,6.3023,6.3031,6.3037,6.3158,0,0,0,0,0,0,6.257,6.2589,6.264,6.2647,6.2662,6.2789,6.2685,6.2679,6.2705,6.2694,6.2707,6.2705,6.2678,6.2774,6.2788,6.2858,6.2722,6.3016,6.3026,6.3035,6.3148,6.3169,6.3187,0,0,0,0,0,6.2564,6.2673,6.2643,6.2658,6.2725,6.2793,6.2801,6.2769,6.2712,6.2762,6.2755,6.2704,6.2842,6.2784,6.28,6.2872,6.3012,6.3023,6.3034,6.3139,6.3165,6.3187,0,0,0,0,0,0,6.2676,6.2674,6.264,6.2755,6.2775,6.2776,6.2839,6.2798,6.2834,6.2823,6.2781,6.2784,6.2883,6.2886,6.2822,6.2997,6.2917,6.2932,6.2991,6.3016,6.3035,6.3031,6.2728,0,0,0,0,0,6.2713,6.2769,6.2764,6.2866,6.2877,6.2857,6.2885,6.2858,6.2877,6.2885,6.2885,6.2905,6.2952,6.2984,6.3028,6.3148,6.3148,6.3205,6.3225,6.3241,6.3254,6.3314,6.3338,6.3077,6.3077,6.3077,0,0,6.2792,6.2798,6.2836,6.2888,6.29,6.2958,6.2864,6.293,6.2972,6.2895,6.298,6.2981,6.3,6.3106,6.3152,6.3112,6.3326,6.3255,6.3268,6.3272,6.3328,6.3353,6.3375,6.3085,6.3083,6.3082,0,0,6.2965,6.2976,6.306,6.3073,6.3092,6.3077,6.3098,6.3105,6.3102,6.3187,6.3129,6.3178,6.3261,6.3276,6.3294,6.3468,6.3422,6.3484,6.3585,6.3645,6.3665,6.3683,6.3743,6.3765,6.3497,6.3497,6.3497,0,6.306,6.3145,6.3108,6.3177,6.32,6.3132,6.3215,6.323,6.3263,6.328,6.3234,6.3334,6.3343,6.3449,6.3491,6.351,6.3529,6.3482,6.3665,6.3683,6.3699,6.3755,6.3778,6.3504,6.3504,6.3503,6.3502,0,6.326,6.3319,6.3385,6.3416,6.3447,6.3523,6.3496,6.3531,6.3501,6.349,6.3575,6.3582,6.3624,6.3648,6.362,6.3749,6.3723,6.3672,6.359,6.3732,6.3784,6.3805,6.3515,6.3512,6.351,6.3508,0,0,6.3506,6.3513,6.3538,6.3549,6.3564,6.3609,6.368,6.372,6.375,6.3774,6.3831,6.3901,6.3853,6.3874,6.3847,6.3899,6.4033,6.3841,6.3841,6.3874,6.4173,6.421,6.4235,6.4002,6.4006,6.401,6.417,0,6.3674,6.3796,6.3763,6.3884,6.3937,6.3871,6.3933,6.3948,6.3939,6.3981,6.3971,6.402,6.3954,6.3966,6.4015,6.4006,6.4092,6.3995,6.4053,6.4056,6.4049,6.4263,6.4303,6.4454,6.4191,6.4194,6.4197,0,6.3887,6.3917,6.4044,6.4046,6.4066,6.4123,6.4155,6.4197,6.4211,6.42,6.4222,6.4183,6.4251,6.417,6.4261,6.4196,6.4218,6.4217,6.4222,6.4225,6.4134,6.427,6.4502,6.4524,6.4229,6.4226,6.4224,0,6.405,6.4123,6.4206,6.4219,6.4225,6.4265,6.4269,6.4278,6.4303,6.4331,6.4347,6.4383,6.4402,6.4431,6.4401,6.4345,6.4497,6.4413,6.4488,6.4489,6.4522,6.452,6.476,6.454,6.454,6.4539,6.4539,0,6.424,6.432,6.4279,6.4331,6.4416,6.4377,6.4462,6.4459,6.4467,6.4516,6.4462,6.4508,6.4468,6.451,6.4488,6.4566,6.4576,6.4568,6.456,6.4572,6.4572,6.4584,6.4572,6.4545,6.4544,6.4543,6.4542,0,6.4437,6.4414,6.45,6.4497,6.4498,6.4561,6.4557,6.4604,6.459,6.4652,6.4664,6.4642,6.4689,6.4663,6.4712,6.4696,6.4796,6.4776,6.4791,6.4785,6.486,6.4853,6.5115,6.5146,6.4908,6.491,6.4912,0,6.456,6.4618,6.4621,6.4649,6.4656,6.4703,6.4727,6.4689,6.4717,6.4735,6.4779,6.4821,6.4852,6.493,6.4918,6.4954,6.4933,6.5022,6.4938,6.4946,6.4931,6.4927,6.4931,6.5038,6.5041,6.5043,6.5045,0,6.4778,6.4763,6.48,6.4833,6.4863,6.4887,6.4906,6.4932,6.4894,6.4928,6.4974,6.4999,6.5046,6.5088,6.5118,6.5121,6.5077,6.5072,6.509,6.5102,6.5107,6.5103,6.4835,6.5066,6.5064,6.5062,6.5061,6.506,6.494,6.4988,6.4996,6.5038,6.5048,6.5067,6.5109,6.5099,6.5137,6.5173,6.5148,6.5202,6.5211,6.5247,6.5255,6.5296,6.526,6.5288,6.5295,6.5302,6.5311,6.5102,6.5302,6.5301,6.5301,6.53,6.53,0,6.5154,6.5155,6.5194,6.5221,6.5254,6.5208,6.5227,6.5257,6.5305,6.5317,6.5348,6.54,6.5439,6.5429,6.5464,6.5499,6.5479,6.5509,6.5505,6.5506,6.5343,6.5322,6.5524,6.5524,6.5524,6.5524,6.5524,6.5524,6.5269,6.5346,6.5331,6.5411,6.5411,6.5463,6.5477,6.5493,6.5502,6.5562,6.5594,6.5587,6.5589,6.5623,6.5656,6.5652,6.5667,6.5704,6.5692,6.554,6.5518,6.5497,6.5477,6.5708,6.5708,6.5851,6.5853,6.5854]}]]